Terminal Aerodrome Forecast
Issued by NWS Columbia, SC

Current Version | Previous Version | Text Only | Print | Product List | Glossary On
Versions: 1 2 3 4 5 6 7 8 9 10 11 12 13 14 15 16 17 18 19 20 21 22 23 24 25 26 27 28 29 30 31 32 33 34 35 36 37 38 39 40 41 42 43 44 45
548
FTAK31 PAJN 260540
TAFAGS
TAF
PAGS 260540Z 2606/2706 VRB03KT P6SM VCSH SCT015 OVC050
      TEMPO 2606/2609 5SM -SHRASN BR OVC015
     FM261000 35004KT P6SM SCT025 BKN080
     FM262100 35007KT P6SM OVC060
      AMD LTD TO CLD VIS AND WIND=

USA.gov is the U.S. government's official web portal to all federal, state and local government web resources and services.